Weather History for KCHS - December, 2013

Change the Weather History Date:

Thursday, December 5, 2013

  Actual Average Record
Temperature  
Mean Temperature 69 °F 53 °F  
Max Temperature 81 °F 64 °F 81 °F (2013)
Min Temperature 56 °F 42 °F 22 °F (1969)
Degree Days  
Heating Degree Days 0 12  
Month to date heating degree days 24 58  
Since 1 July heating degree days 329 350  
Cooling Degree Days 4 0  
Month to date cooling degree days 7 0  
Year to date cooling degree days 2436 2297  
Growing Degree Days 18 (Base 50)    
Moisture  
Dew Point 60 °F    
Average Humidity 77    
Maximum Humidity 100    
Minimum Humidity 54    
Precipitation  
Precipitation 0.00 in 0.09 in 1.11 in (1994)
Month to date precipitation T 0.46  
Year to date precipitation 55.96 48.38  
Sea Level Pressure  
Sea Level Pressure 30.13 in    
Wind  
Wind Speed 6 mph (SSW)    
Max Wind Speed 16 mph    
Max Gust Speed 21 mph    
Visibility 5 miles    
Events Fog    
T = Trace of Precipitation, MM = Missing Value Source: NWS Daily Summary

Daily Weather History Graph

Daily Weather History Graph

Search for Another Location

Airport or City:

Trip Planner

Search our weather history database for the weather conditions in past years. The results will help you decide how hot, cold, wet, or windy it might be!

Date:

Astronomy

Dec. 05, 2013 Rise Set
Actual Time 7:08 AM EST 5:13 PM EST
Civil Twilight 6:41 AM EST 5:40 PM EST
Nautical Twilight 6:10 AM EST 6:11 PM EST
Astronomical Twilight 5:40 AM EST 6:41 PM EST
Moon 9:31 AM EST (12/5) 8:27 PM EST (12/5)
Length of Visible Light 10h 59m
Length of Day
10h 05m
Waxing Crescent, 10% of the Moon is Illuminated
Dec 5
Waxing Crescent
Dec 9
First Quarter
Dec 17
Full
Dec 25
Last Quarter
Jan 1
New

Hourly Weather History & Observations

Time (EST) Temp. Dew Point Humidity Pressure Visibility Wind Dir Wind Speed Gust Speed Precip Events Conditions
12:07 AM 57.2 °F 55.4 °F 94% 30.11 in 0.5 mi SW 3.5 mph - N/A Fog Fog
12:28 AM 60.8 °F 57.2 °F 88% 30.12 in 0.2 mi Calm Calm - N/A Fog Fog
12:56 AM 60.1 °F 57.9 °F 93% 30.13 in 0.2 mi Calm Calm - N/A Fog Fog
1:43 AM 59.0 °F 57.2 °F 94% 30.12 in 0.2 mi Calm Calm - N/A Fog Fog
1:56 AM 59.0 °F 57.0 °F 93% 30.12 in 0.2 mi Calm Calm - N/A Fog Fog
2:31 AM 57.2 °F 57.2 °F 100% 30.11 in 0.2 mi South 5.8 mph - N/A Fog Fog
2:34 AM 57.2 °F 57.2 °F 100% 30.11 in 0.5 mi SSE 5.8 mph - N/A Fog Fog
2:56 AM 57.9 °F 57.0 °F 97% 30.12 in 0.5 mi Calm Calm - N/A Fog Fog
3:56 AM 57.9 °F 55.9 °F 93% 30.12 in 0.5 mi Calm Calm - N/A Fog Fog
4:48 AM 57.2 °F 57.2 °F 100% 30.12 in 1.0 mi South 3.5 mph - N/A   Mostly Cloudy
4:50 AM 57.2 °F 57.2 °F 100% 30.12 in 4.0 mi South 3.5 mph - N/A   Mostly Cloudy
4:56 AM 59.0 °F 57.0 °F 93% 30.12 in 5.0 mi SSW 4.6 mph - N/A   Mostly Cloudy
5:26 AM 55.4 °F 55.4 °F 100% 30.13 in 2.0 mi South 3.5 mph - N/A   Partly Cloudy
5:41 AM 55.4 °F 55.4 °F 100% 30.13 in 1.5 mi SSW 3.5 mph - N/A   Scattered Clouds
5:51 AM 55.4 °F 55.4 °F 100% 30.13 in 1.0 mi SW 3.5 mph - N/A   Mostly Cloudy
5:56 AM 57.9 °F 55.9 °F 93% 30.13 in 1.0 mi Calm Calm - N/A   Mostly Cloudy
6:09 AM 59.0 °F 57.2 °F 94% 30.13 in 1.0 mi South 4.6 mph - N/A   Mostly Cloudy
6:13 AM 59.0 °F 57.2 °F 94% 30.14 in 0.5 mi South 4.6 mph - N/A   Mostly Cloudy
6:43 AM 60.8 °F 59.0 °F 94% 30.14 in 3.0 mi Calm Calm - N/A   Overcast
6:56 AM 60.1 °F 57.9 °F 93% 30.14 in 3.0 mi South 3.5 mph - N/A   Mostly Cloudy
7:36 AM 60.8 °F 59.0 °F 94% 30.15 in 4.0 mi South 3.5 mph - N/A   Mostly Cloudy
7:56 AM 61.0 °F 60.1 °F 97% 30.15 in 5.0 mi South 4.6 mph - N/A   Scattered Clouds
8:13 AM 62.6 °F 60.8 °F 94% 30.16 in 1.0 mi SSW 4.6 mph - N/A   Mostly Cloudy
8:56 AM 66.0 °F 64.0 °F 93% 30.17 in 1.0 mi South 6.9 mph - N/A   Mostly Cloudy
9:01 AM 66.2 °F 64.4 °F 94% 30.17 in 3.0 mi South 6.9 mph - N/A   Mostly Cloudy
9:27 AM 66.2 °F 64.4 °F 94% 30.18 in 8.0 mi SSW 5.8 mph - N/A   Mostly Cloudy
9:56 AM 71.1 °F 64.9 °F 81% 30.19 in 10.0 mi SSW 6.9 mph - N/A   Mostly Cloudy
10:56 AM 75.9 °F 63.0 °F 64% 30.17 in 10.0 mi SSW 13.8 mph - N/A   Mostly Cloudy
11:56 AM 77.0 °F 63.0 °F 62% 30.15 in 10.0 mi SSW 10.4 mph - N/A   Mostly Cloudy
12:56 PM 78.1 °F 60.1 °F 54% 30.13 in 10.0 mi South 15.0 mph - N/A   Mostly Cloudy
1:56 PM 79.0 °F 61.0 °F 54% 30.12 in 10.0 mi South 11.5 mph - N/A   Mostly Cloudy
2:56 PM 78.1 °F 61.0 °F 56% 30.10 in 10.0 mi South 10.4 mph - N/A   Mostly Cloudy
3:56 PM 75.0 °F 62.1 °F 64% 30.10 in 10.0 mi SW 8.1 mph - N/A   Mostly Cloudy
4:56 PM 73.0 °F 62.1 °F 68% 30.11 in 10.0 mi SSW 6.9 mph - N/A   Mostly Cloudy
5:56 PM 71.1 °F 63.0 °F 75% 30.12 in 10.0 mi SSW 5.8 mph - N/A   Mostly Cloudy
6:56 PM 70.0 °F 63.0 °F 78% 30.13 in 10.0 mi South 5.8 mph - N/A   Overcast
7:56 PM 69.1 °F 63.0 °F 81% 30.13 in 10.0 mi South 4.6 mph - N/A   Mostly Cloudy
8:56 PM 68.0 °F 64.0 °F 87% 30.12 in 10.0 mi SSW 5.8 mph 19.6 mph N/A   Partly Cloudy
9:56 PM 68.0 °F 64.9 °F 90% 30.14 in 10.0 mi South 6.9 mph - N/A   Scattered Clouds
10:56 PM 69.1 °F 64.9 °F 87% 30.14 in 10.0 mi South 9.2 mph - N/A   Mostly Cloudy
11:56 PM 68.0 °F 64.9 °F 90% 30.13 in 10.0 mi SSW 9.2 mph - N/A   Mostly Cloudy